Regional Weather Roundup
Issued by NWS Glasgow, MT

Home | Current Version | Previous Version | Text Only | Print | Product List | Glossary On
Versions: 1 2 3 4 5 6 7 8 9 10 11 12 13 14 15 16 17 18 19 20 21 22 23 24 25 26 27 28 29 30 31 32 33 34 35 36 37 38 39 40 41 42 43 44 45 46 47 48 49 50
000
ASUS45 KGGW 280915
RWRGGW
HOURLY REGIONAL WEATHER ROUNDUP FOR NORTHEAST MONTANA
NATIONAL WEATHER SERVICE GLASGOW MONTANA
300 AM MDT FRI JUL 28 2017

NOTE: "FAIR" INDICATES FEW OR NO CLOUDS BELOW 12,000 FEET WITH NO
SIGNIFICANT WEATHER AND/OR OBSTRUCTIONS TO VISISBILITY.

NORTHEAST MONTANA


CITY           SKY/WX    TMP DP  RH WIND       PRES   REMARKS
GLASGOW        CLEAR     63  53  70 E10       29.95S
PLENTYWOOD       N/A     62  58  86 SE5         N/A
WOLF POINT     CLEAR     63  57  81 NE7       29.98R
JORDAN           N/A     62  50  64 E6        29.96S
WINNETT          N/A     63  57  81 SW1         N/A
SIDNEY         PTCLDY    64  58  80 CALM      29.99S
GLENDIVE       PTCLDY    64  55  72 SE7       30.00S
MALTA            N/A     67  54  63 E2          N/A
SCOBEY           N/A     57  45  64 CALM      29.98S

FORT PECK REPORTS


CITY           SKY/WX    TMP DP  RH WIND       PRES   REMARKS
FORT PECK        N/A     67  56  67 E12         N/A
THE PINES        N/A     66  52  60 SE3         N/A

SOUTHEAST MONTANA


CITY           SKY/WX    TMP DP  RH WIND       PRES   REMARKS
BILLINGS       CLOUDY    69  54  58 S7        30.01S
MILES CITY     CLEAR     63  53  70 SE5       29.97R
BAKER          CLEAR     62  53  72 SE14      30.02R
LIVINGSTON     CLOUDY    68  47  46 W13       30.11R

CENTRAL MONTANA


CITY           SKY/WX    TMP DP  RH WIND       PRES   REMARKS
HAVRE          CLEAR     65  45  48 W7        29.90R
LEWISTOWN      CLEAR     62  46  55 SE3       30.03S
GREAT FALLS    CLEAR     64  41  42 SW9       30.01R
CUT BANK       CLEAR     67  44  43 NW13      30.01R
HELENA         CLEAR     69  47  45 CALM      30.08R
BUTTE          CLEAR     55  44  66 S3        30.21R
BOZEMAN        CLEAR     55  49  80 SE6       30.13S

WESTERN MONTANA


CITY           SKY/WX    TMP DP  RH WIND       PRES   REMARKS
MISSOULA       CLEAR     68  51  54 E7        30.06R
KALISPELL      NOT AVBL

NORTH DAKOTA


CITY           SKY/WX    TMP DP  RH WIND       PRES   REMARKS
WILLISTON      CLEAR     61  59  93 CALM      30.00S
DICKINSON      CLOUDY    63  61  93 E7        30.02S
MINOT          PTCLDY    69  58  67 SE6       30.03S
BISMARCK       CLOUDY    68  60  75 E6        30.05F

SOUTHERN SASKATCHEWAN


CITY           SKY/WX    TMP DP  RH WIND       PRES   REMARKS
REGINA         CLEAR     61  57  88 SE10      29.97F
ESTEVAN        PTCLDY    59  55  88 SE2       30.00S
SWIFT CURRENT  CLEAR     66  55  68 S14G20    29.89S




USA.gov is the U.S. government's official web portal to all federal, state and local government web resources and services.